STARLINK-34159, 63952

Orbit data source: Space-Track

STARLINK-34159, 63952 is a payload satellite owned by SpaceX/Seattle (US) in LEO that was launched on Tue, 13 May 2025 UTC via an FALCON 9 launch vehicle from the Air Force Eastern Test Range (AFETR). Payload-class satellites include a variety of spacecraft equipped with specific instruments for various scientific and technological missions. These include communications satellites like Starlink; space stations such as the ISS; scientific satellites like the Hubble; Earth observation satellites from companies like Planet Labs, Umbra, and HawkEye 360; GPS; miniature CubeSats for education and research; and military/defense satellites.

Loading next visibility...
Identifier
63952, 2025-099A
Orbit
LEO
Country
Flag of USUS
Related business
Manufacturer
SpaceX/Seattle
Mission
Operational Commercial Communications
Bus & Motor
STARLINK V2MO, Unknown motor
Mass
575 kg wet, ~530 kg dry
Launch date (UTC)
2025-05-13 (7 months ago)
Launch vehicle
FALCON 9
Launch site
Air Force Eastern Test Range (AFETR)
Object type
Payload
Rocket body
Debris
Shape & HBR
Box + 2 Pan, 17.7 m
Radar Cross Section
36.964 m², Large (>1 m²)

Expand to show TLE details & history
Last TLE update: 13 hours ago

TLE from 13 hours ago
0 STARLINK-34159
1 63952U 25099A   25346.92629505  .00049230  00000-0  17842-2 0  9990
2 63952  43.0031 306.5038 0001955 275.1495  84.9134 15.27623415 34053
Epoch: 2025-12-12T22:13Z
TLE epoch observation values (Epoch: 2025-12-12T22:13:51.892Z)
Latitude
0.00002°
Longitude
-108.82331°
Altitude
482.576 km
Speed
7.626 km/s
True Right ascension
20h 26m 00s
True Declination
0° 00' 00"
Sunlit
Object was in daylight at epoch
Visualization orbit readout
Latitude
Unknown
Longitude
Unknown
Altitude
Unknown
Speed
Unknown
Apparent Right ascension
Unknown
Apparent Declination
Unknown
Sunlit
N/A
Visualization observer readout
Local Sidereal Time
09:16:23
Azimuth
Unknown
Elevation
Unknown
Doppler factor
Unknown
Orbital elements
Apogee altitude
486.206 km
Perigee altitude
483.522 km
Semi-major axis
6,863.001 km
Eccentricity
0.0002
Inclination
43.0031°
RAAN
306.5038°
Arg. of periapsis
275.1495°
True anomaly
84.93571°
Mean anomaly
84.9134°
Eccentric anomaly
84.92456°
Mean motion
3.81744 °/min
Orbital period
94.3 mins
BSTAR
0.0017842
Loading maneuver chart data...
Computing Atmospheric mass density...
Loading historical data...
Loading historical data...
Loading historical data...
Loading historical data...
Loading historical data...
Loading historical data...
Loading historical data...

Documentation

Showing up to 5 results
|